Hourly Data Report for June 05, 2021

MANIWAKI AIRPORT
QUEBEC
Current Station Operator: ECCC - MSC

46°16'29.000" N
75°59'31.000" W
199.70 m
7034482
71721
WMJ

Download Data

Hourly Data (June 2021)
Hourly Data Report for June 5, 2021
TIME
LST
Temp Definition
°C
Dew Point Definition
°C
Rel Hum Definition
%
Precip. Amount Definition
mm

Wind Dir Definition
10's deg

Wind Spd Definition
km/h
Visibility Definition
km
Stn Press Definition
kPa
Hmdx Definition


Wind Chill Definition


Weather Definition


00:00 16.3 13.8 85 0.0 19 7   98.31     LegendNANA
01:00 16.3 13.8 85 0.0 19 11   98.28     LegendNANA
02:00 15.8 13.5 86 0.0 20 9   98.24     LegendNANA
03:00 15.6 13.9 90 0.0 20 9   98.17     LegendNANA
04:00 16.3 14.7 90 0.0 20 9   98.10     LegendNANA
05:00 17.0 15.2 89 0.0 18 10   98.07     LegendNANA
06:00 17.2 15.2 89 0.0 17 8   98.07     LegendNANA
07:00 18.0 15.5 85 0.0 22 9   98.14     LegendNANA
08:00 18.3 16.3 88 0.0 20 5   98.14     LegendNANA
09:00 19.6 16.0 80 0.0 17 9   98.04     LegendNANA
10:00 23.6 16.5 64 0.0 22 16   98.06 29   LegendNANA
11:00 23.7 15.5 60 0.0 24 18   98.12 28   LegendNANA
12:00 23.5 16.3 64 0.0 25 11   98.17 28   LegendNANA
13:00 22.8 16.7 68 0.0 27 9   98.24 28   LegendNANA
14:00 23.3 17.4 69 0.0 29 8   98.31 29   LegendNANA
15:00 21.1 18.3 84 0.3 33 8   98.38 27   LegendNANA
16:00 20.4 18.7 90 0.5 26 8   98.41 27   LegendNANA
17:00 19.2 18.6 96 11.7 23 13   98.47     LegendNANA
18:00 20.4 19.3 94 0.6 21 6   98.46 27   LegendNANA
19:00 20.1 18.4 90 0.0 23 8   98.51 26   LegendNANA
20:00 18.2 17.0 93 0.0 20 6   98.57     LegendNANA
21:00 17.4 16.8 96 0.0 24 6   98.64     LegendNANA
22:00 16.2 16.0 98 0.0 14 7   98.66     LegendNANA
23:00 15.5 15.3 99 0.0 23 2   98.66     LegendNANA

Notes on Data Quality.

Legend

  • E = Estimated
  • M = Missing
  • NA = Not Available*
  • [empty] = Indicates an unobserved value
Date modified: